User: anonymous   Login
Location: Unspecified
(0.0000°N, 0.0000°E)
Time: 05:49:59
(UTC+00:00)
Language:

STARLINK-35657 - Orbit

View from above orbital plane
View from above orbital plane
View from above satellite
View from above satellite

Ground track
Ground track

The orbit is defined by the following mean orbital elements,

1 66399U          26145.50828213 +.00000000 +00000-0 +31185-3 0 00004
2 66399  53.1584 219.5783 0001871  92.1654 267.9563 15.34402659    07
Epoch (UTC): 25 May 2026 12:11:55
Eccentricity: 0.0001871
inclination: 53.1584°
perigee height: 461 km
apogee height: 464 km
right ascension of ascending node: 219.5783°
argument of perigee: 92.1654°
revolutions per day: 15.34402659
mean anomaly at epoch: 267.9563°

The dashed part of the orbit path shows where the satellite is in the earth's shadow,  

DLR